Home   Weather   Teófilo Otoni   Past weeks

Flag for Brazil Past Weather in Teófilo Otoni, Minas Gerais, Brazil — Yesterday and Last 2 Weeks

Now
66 °F

Strong thunderstorms. Passing clouds.


Feels Like: 66 °F
Forecast: 70 / 87 °F
Wind: 5 mph from East

Location: Belo Horizonte Airport

Current Time: Dec 5, 2016 at 12:37:07 am

Latest Report: Dec 5, 2016 at 12:00 am


Visibility: 1 mi

Pressure: 29.95 "Hg

Humidity: 94%

Dew Point: 64 °F

Location of Teófilo OtoniLocation

Past Weather in Teófilo Otoni — Graph

°F

Teófilo Otoni Temperature Yesterday

Maximum temperature yesterday: 79 °F (at 4:00 pm)
Minimum temperature yesterday: 64 °F (at 2:00 am)
Average temperature yesterday: 70 °F

High & Low Weather Summary for the Past Weeks

 TemperatureHumidityPressure
High88 °F (Nov 29, 4:00 pm)100% (Nov 22, 9:00 pm)30.18 "Hg (Nov 22, 9:00 pm)
Low54 °F (Nov 20, 5:00 am)30% (Nov 23, 7:00 am)29.80 "Hg (Dec 4, 4:00 pm)
Average72 °F73%30.04 "Hg
* Reported Nov 19 11:00 pm — Dec 4 11:00 pm, Teófilo Otoni, Weather by CustomWeather, © 2016

Note: Actual official high and low records may vary slightly from our data, if they occured in-between our weather recording intervals... More about our weather records

Advertising

Teófilo Otoni Weather History for the Previous 24 Hours

Scroll right to see more
 ConditionsComfort  
Time TempWeatherWind HumidityBarometerVisibility
11:00 pm
Sun, Dec 4
70 °FThunderstorms. Fog.12 mph88%29.95 "Hg2 mi
10:00 pm70 °FThunderstorms. Passing clouds.6 mph88%29.89 "Hg2 mi
9:00 pm70 °FPassing clouds.7 mph88%29.83 "HgN/A
8:00 pm70 °FThundershowers. Passing clouds.1 mph88%N/AN/A
7:00 pm70 °FThunderstorms. Broken clouds.8 mph78%N/A6 mi
6:00 pm77 °FScattered showers. Scattered clouds.3 mph74%N/AN/A
5:00 pm77 °FBroken clouds.8 mph69%29.80 "HgN/A
4:00 pm79 °FBroken clouds.14 mph65%29.80 "HgN/A
3:00 pm77 °FBroken clouds.14 mph69%29.86 "HgN/A
2:00 pm73 °FPartly sunny.15 mph78%29.92 "HgN/A
1:00 pm73 °FPartly sunny.14 mph78%29.95 "HgN/A
12:00 pm72 °FPartly sunny.12 mph83%29.95 "HgN/A
11:00 am70 °FPartly sunny.12 mph83%29.98 "HgN/A
10:00 am68 °FPartly sunny.9 mph88%29.95 "HgN/A
9:00 am66 °FFog.7 mph94%29.95 "Hg3 mi
8:00 am66 °FFog.8 mph94%29.92 "Hg1 mi
7:00 am64 °FLight rain. Partly sunny.6 mph100%29.92 "Hg2 mi
6:00 am64 °FRain. Passing clouds.14 mph100%29.92 "Hg2 mi
5:00 am64 °FFog.12 mph94%29.89 "Hg2 mi
4:00 am66 °FPartly cloudy.6 mph94%29.89 "HgN/A
3:00 am64 °FThunderstorms. Fog.7 mph94%29.92 "Hg2 mi
2:00 am64 °FThunderstorms. Passing clouds.15 mph94%29.95 "Hg2 mi
1:00 am73 °FClear.5 mph74%29.92 "Hg10 mi
12:00 am75 °FClear.5 mph69%29.95 "Hg10 mi
Weather by CustomWeather, © 2016

See weather overviewHow to use our weather pages